Location: Asheville, NC
(35.6000°N, 82.5500°W)
Time: 19:59:16
(UTC-04:00)

N. Korean satellite - Pass Details

Date: 06 January 2018
Orbit: 458 x 513 km, 97.2° (Epoch: 26 May)

Event Time Altitude Azimuth Distance (km) Brightness Sun altitude
Rises 06:07:32 0° 38° (NE) 2,507 10.5 -18.4°
Reaches altitude 10° 06:11:17 10° 80° (E) 1,611 10.2 -17.7°
Maximum altitude 06:11:58 10° 92° (E) 1,579 10.3 -17.5°
Drops below altitude 10° 06:12:40 10° 104° (ESE) 1,604 10.5 -17.4°
Sets 06:16:20 0° 146° (SE) 2,463 11.0 -16.7°
